Location: Zagreb
(45.8000°N, 16.0000°E)
Time: 18:48:37
(UTC+02:00)

SR - Pass Details

Date: 16 August 2020
Orbit: 583 x 873 km, 66.7° (Epoch: 28 September)

Event Time Altitude Azimuth Distance (km) Brightness Sun altitude
Rises 06:14:36 0° 322° (NW) 2,838 ? 2.0°
Reaches altitude 10° 06:16:50 10° 317° (NW) 1,952 ? 2.3°
Maximum altitude 06:21:03 49° 242° (WSW) 810 ? 3.0°
Drops below altitude 10° 06:25:31 10° 168° (SSE) 2,065 ? 3.8°
Sets 06:27:57 0° 163° (SSE) 3,021 ? 4.2°
